Time,TemperatureF,DewpointF,PressureIn,WindDirection,WindDirectionDegrees,WindSpeedMPH,WindSpeedGustMPH,Humidity,HourlyPrecipIn,Conditions,Clouds,dailyrainin,SoftwareType,DateUTC
2013-03-10 00:01:00,67.6,-99.9,30.14,ENE,76,3.0,3.0,255,0.00,,,0.00,Wunderground v.1.13,2013-03-10 05:01:00,
2013-03-10 00:35:00,67.6,-99.9,30.12,East,80,4.0,7.0,255,0.00,,,0.00,Wunderground v.1.13,2013-03-10 05:35:00,
2013-03-10 00:40:00,67.6,-99.9,30.12,ENE,61,4.0,5.0,255,0.00,,,0.00,Wunderground v.1.13,2013-03-10 05:40:00,
2013-03-10 00:56:00,67.4,-99.9,30.11,ENE,77,5.0,5.0,255,0.00,,,0.00,Wunderground v.1.13,2013-03-10 05:56:00,
2013-03-10 01:01:00,67.4,-99.9,30.11,NNE,32,4.0,8.0,255,0.00,,,0.00,Wunderground v.1.13,2013-03-10 06:01:00,
2013-03-10 01:26:00,67.4,-99.9,30.11,ENE,77,5.0,5.0,255,0.00,,,0.00,Wunderground v.1.13,2013-03-10 06:26:00,
2013-03-10 01:36:00,67.4,-99.9,30.09,ENE,57,5.0,5.0,255,0.00,,,0.00,Wunderground v.1.13,2013-03-10 06:36:00,
2013-03-10 01:45:00,67.3,-99.9,30.09,ENE,78,4.0,4.0,255,0.00,,,0.00,Wunderground v.1.13,2013-03-10 06:45:00,
2013-03-10 01:51:00,67.3,-99.9,30.10,ENE,76,4.0,8.0,255,0.00,,,0.00,Wunderground v.1.13,2013-03-10 06:51:00,
2013-03-10 03:06:00,67.1,-99.9,30.07,ENE,77,4.0,8.0,255,0.00,,,0.00,Wunderground v.1.13,2013-03-10 07:06:00,
2013-03-10 03:21:00,67.1,-99.9,30.08,East,82,3.0,3.0,255,0.00,,,0.00,Wunderground v.1.13,2013-03-10 07:21:00,
2013-03-10 03:31:00,67.1,-99.9,30.08,ENE,74,4.0,4.0,255,0.00,,,0.00,Wunderground v.1.13,2013-03-10 07:31:00,
2013-03-10 03:36:00,67.1,-99.9,30.07,ENE,69,4.0,5.0,255,0.00,,,0.00,Wunderground v.1.13,2013-03-10 07:36:00,
2013-03-10 04:01:00,67.1,-99.9,30.07,ENE,57,3.0,4.0,255,0.00,,,0.00,Wunderground v.1.13,2013-03-10 08:01:00,
2013-03-10 04:25:00,67.6,-99.9,30.07,East,84,5.0,5.0,255,0.00,,,0.00,Wunderground v.1.13,2013-03-10 08:25:00,
2013-03-10 04:30:00,67.4,-99.9,30.07,ENE,66,5.0,5.0,255,0.00,,,0.00,Wunderground v.1.13,2013-03-10 08:30:00,
2013-03-10 04:41:00,67.1,-99.9,30.06,ENE,71,5.0,5.0,255,0.00,,,0.00,Wunderground v.1.13,2013-03-10 08:41:00,
2013-03-10 04:46:00,67.1,-99.9,30.06,East,82,6.0,6.0,255,0.00,,,0.00,Wunderground v.1.13,2013-03-10 08:46:00,
2013-03-10 04:56:00,66.9,-99.9,30.06,ENE,76,6.0,7.0,255,0.00,,,0.00,Wunderground v.1.13,2013-03-10 08:56:00,
2013-03-10 05:01:00,66.6,-99.9,30.05,East,90,7.0,10.0,-32768,0.00,,,0.00,Wunderground v.1.13,2013-03-10 09:01:00,
2013-03-10 05:26:00,66.6,-99.9,30.07,NE,49,3.0,3.0,255,0.00,,,0.00,Wunderground v.1.13,2013-03-10 09:26:00,
2013-03-10 05:40:00,66.8,-99.9,30.08,ENE,68,3.0,3.0,255,0.00,,,0.00,Wunderground v.1.13,2013-03-10 09:40:00,
2013-03-10 05:46:00,66.8,-99.9,30.08,NE,46,4.0,6.0,255,0.00,,,0.00,Wunderground v.1.13,2013-03-10 09:46:00,
2013-03-10 05:56:00,66.9,-99.9,30.08,ENE,73,5.0,5.0,255,0.00,,,0.00,Wunderground v.1.13,2013-03-10 09:56:00,
2013-03-10 06:21:00,66.4,-99.9,30.07,East,90,5.0,5.0,255,0.00,,,0.00,Wunderground v.1.13,2013-03-10 10:21:00,
2013-03-10 06:46:00,66.4,-99.9,30.07,ENE,77,4.0,4.0,255,0.00,,,0.00,Wunderground v.1.13,2013-03-10 10:46:00,
2013-03-10 06:56:00,66.4,-99.9,30.08,ENE,68,3.0,3.0,255,0.00,,,0.00,Wunderground v.1.13,2013-03-10 10:56:00,
2013-03-10 07:01:00,66.8,-99.9,30.08,East,90,6.0,8.0,-32768,0.00,,,0.00,Wunderground v.1.13,2013-03-10 11:01:00,
2013-03-10 07:26:00,63.9,-99.9,30.08,ENE,76,4.0,4.0,255,0.00,,,0.00,Wunderground v.1.13,2013-03-10 11:26:00,
2013-03-10 07:40:00,62.6,-99.9,30.08,ENE,59,4.0,7.0,255,0.00,,,0.00,Wunderground v.1.13,2013-03-10 11:40:00,
2013-03-10 07:45:00,62.6,-99.9,30.08,ENE,71,4.0,4.0,255,0.00,,,0.00,Wunderground v.1.13,2013-03-10 11:45:00,
2013-03-10 07:51:00,62.6,-99.9,30.09,ENE,78,5.0,5.0,255,0.00,,,0.00,Wunderground v.1.13,2013-03-10 11:51:00,
2013-03-10 08:01:00,62.7,-99.9,30.09,ENE,57,4.0,5.0,255,0.00,,,0.00,Wunderground v.1.13,2013-03-10 12:01:00,
2013-03-10 08:26:00,63.9,-99.9,30.10,ENE,62,4.0,5.0,255,0.00,,,0.00,Wunderground v.1.13,2013-03-10 12:26:00,
2013-03-10 08:46:00,67.1,-99.9,30.10,ENE,71,4.0,5.0,255,0.00,,,0.00,Wunderground v.1.13,2013-03-10 12:46:00,
2013-03-10 09:01:00,67.8,-99.9,30.11,ENE,66,5.0,5.0,255,0.00,,,0.00,Wunderground v.1.13,2013-03-10 13:01:00,
2013-03-10 09:25:00,68.9,-99.9,30.11,ENE,74,5.0,7.0,255,0.00,,,0.00,Wunderground v.1.13,2013-03-10 13:25:00,
2013-03-10 09:36:00,69.3,-99.9,30.11,East,81,5.0,6.0,255,0.00,,,0.00,Wunderground v.1.13,2013-03-10 13:36:00,
2013-03-10 09:46:00,69.6,-99.9,30.11,ENE,71,5.0,5.0,255,0.00,,,0.00,Wunderground v.1.13,2013-03-10 13:46:00,
2013-03-10 10:00:00,69.1,-99.9,30.11,ENE,69,5.0,9.0,255,0.00,,,0.00,Wunderground v.1.13,2013-03-10 14:00:00,
2013-03-10 10:06:00,69.9,-99.9,30.11,ENE,74,6.0,6.0,255,0.00,,,0.00,Wunderground v.1.13,2013-03-10 14:06:00,
2013-03-10 10:31:00,71.1,-99.9,30.12,ENE,67,4.0,7.0,255,0.00,,,0.00,Wunderground v.1.13,2013-03-10 14:31:00,
2013-03-10 10:41:00,73.2,-99.9,30.12,East,91,5.0,6.0,255,0.00,,,0.00,Wunderground v.1.13,2013-03-10 14:41:00,
2013-03-10 10:51:00,73.7,-99.9,30.11,ENE,69,5.0,5.0,255,0.00,,,0.00,Wunderground v.1.13,2013-03-10 14:51:00,
2013-03-10 11:06:00,73.5,-99.9,30.11,East,79,6.0,8.0,255,0.00,,,0.00,Wunderground v.1.13,2013-03-10 15:06:00,
2013-03-10 11:41:00,74.0,-99.9,30.11,East,101,6.0,9.0,255,0.00,,,0.00,Wunderground v.1.13,2013-03-10 15:41:00,
2013-03-10 11:51:00,74.9,-99.9,30.11,East,80,7.0,7.0,255,0.00,,,0.00,Wunderground v.1.13,2013-03-10 15:51:00,
2013-03-10 11:56:00,75.1,-99.9,30.11,ENE,68,1.0,3.0,-32768,0.00,,,0.00,Wunderground v.1.13,2013-03-10 15:56:00,
2013-03-10 12:01:00,74.6,-99.9,30.12,East,90,7.0,9.0,-32768,0.00,,,0.00,Wunderground v.1.13,2013-03-10 16:01:00,
2013-03-10 12:21:00,74.7,-99.9,30.12,ENE,77,5.0,5.0,255,0.00,,,0.00,Wunderground v.1.13,2013-03-10 16:21:00,
2013-03-10 12:36:00,76.5,-99.9,30.12,East,81,5.0,9.0,255,0.00,,,0.00,Wunderground v.1.13,2013-03-10 16:36:00,
2013-03-10 12:46:00,76.0,-99.9,30.12,East,86,5.0,7.0,255,0.00,,,0.00,Wunderground v.1.13,2013-03-10 16:46:00,
2013-03-10 12:51:00,76.3,-99.9,30.11,NE,56,5.0,5.0,255,0.00,,,0.00,Wunderground v.1.13,2013-03-10 16:51:00,
2013-03-10 13:06:00,76.3,-99.9,30.10,ENE,59,6.0,6.0,255,0.00,,,0.00,Wunderground v.1.13,2013-03-10 17:06:00,
2013-03-10 13:36:00,76.8,-99.9,30.09,ENE,59,5.0,7.0,255,0.00,,,0.00,Wunderground v.1.13,2013-03-10 17:36:00,
2013-03-10 13:50:00,77.2,-99.9,30.07,East,80,6.0,6.0,255,0.00,,,0.00,Wunderground v.1.13,2013-03-10 17:50:00,
2013-03-10 13:55:00,77.0,-99.9,30.07,East,90,5.0,5.0,255,0.00,,,0.00,Wunderground v.1.13,2013-03-10 17:55:00,
2013-03-10 14:01:00,76.7,-99.9,30.07,East,83,5.0,8.0,255,0.00,,,0.00,Wunderground v.1.13,2013-03-10 18:01:00,
2013-03-10 14:25:00,76.7,-99.9,30.07,ESE,105,5.0,8.0,255,0.00,,,0.00,Wunderground v.1.13,2013-03-10 18:25:00,
2013-03-10 14:35:00,77.9,-99.9,30.06,ENE,76,6.0,6.0,255,0.00,,,0.00,Wunderground v.1.13,2013-03-10 18:35:00,
2013-03-10 14:40:00,77.0,-99.9,30.06,East,90,6.0,10.0,-32768,0.00,,,0.00,Wunderground v.1.13,2013-03-10 18:40:00,
2013-03-10 14:45:00,77.6,-99.9,30.06,East,90,6.0,13.0,-32768,0.00,,,0.00,Wunderground v.1.13,2013-03-10 18:45:00,
2013-03-10 14:50:00,76.5,-99.9,30.06,ENE,68,6.0,9.0,-32768,0.00,,,0.00,Wunderground v.1.13,2013-03-10 18:50:00,
2013-03-10 14:55:00,75.8,-99.9,30.06,East,90,7.0,10.0,-32768,0.00,,,0.00,Wunderground v.1.13,2013-03-10 18:55:00,
2013-03-10 15:00:00,76.5,-99.9,30.06,ESE,113,6.0,11.0,-32768,0.00,,,0.00,Wunderground v.1.13,2013-03-10 19:00:00,
2013-03-10 15:36:00,76.1,-99.9,30.06,ENE,72,6.0,11.0,255,0.00,,,0.00,Wunderground v.1.13,2013-03-10 19:36:00,
2013-03-10 16:01:00,75.6,-99.9,30.06,ESE,105,6.0,6.0,255,0.00,,,0.00,Wunderground v.1.13,2013-03-10 20:01:00,
2013-03-10 16:31:00,74.6,-99.9,30.04,ENE,78,5.0,9.0,255,0.00,,,0.00,Wunderground v.1.13,2013-03-10 20:31:00,
2013-03-10 16:41:00,75.8,-99.9,30.04,ENE,67,6.0,8.0,255,0.00,,,0.00,Wunderground v.1.13,2013-03-10 20:41:00,
2013-03-10 16:51:00,74.4,-99.9,30.04,NE,40,5.0,6.0,255,0.00,,,0.00,Wunderground v.1.13,2013-03-10 20:51:00,
2013-03-10 16:56:00,73.9,-99.9,30.04,East,90,4.0,6.0,-32768,0.00,,,0.00,Wunderground v.1.13,2013-03-10 20:56:00,
2013-03-10 17:01:00,74.0,-99.9,30.04,East,90,5.0,8.0,-32768,0.00,,,0.00,Wunderground v.1.13,2013-03-10 21:01:00,
2013-03-10 17:36:00,72.7,-99.9,30.04,ENE,62,5.0,9.0,255,0.00,,,0.00,Wunderground v.1.13,2013-03-10 21:36:00,
2013-03-10 17:46:00,72.7,-99.9,30.04,ENE,71,5.0,5.0,255,0.00,,,0.00,Wunderground v.1.13,2013-03-10 21:46:00,
2013-03-10 17:56:00,72.5,-99.9,30.04,ENE,69,5.0,5.0,255,0.00,,,0.00,Wunderground v.1.13,2013-03-10 21:56:00,
2013-03-10 18:05:00,72.3,-99.9,30.04,ENE,69,5.0,5.0,255,0.00,,,0.00,Wunderground v.1.13,2013-03-10 22:05:00,
2013-03-10 18:30:00,72.8,-99.9,30.04,ENE,57,6.0,6.0,255,0.00,,,0.00,Wunderground v.1.13,2013-03-10 22:30:00,
2013-03-10 18:41:00,72.3,-99.9,30.04,ENE,78,6.0,6.0,255,0.00,,,0.00,Wunderground v.1.13,2013-03-10 22:41:00,
2013-03-10 18:46:00,72.1,-99.9,30.04,ENE,70,6.0,6.0,255,0.00,,,0.00,Wunderground v.1.13,2013-03-10 22:46:00,
2013-03-10 19:06:00,71.3,-99.9,30.05,ENE,78,4.0,8.0,255,0.00,,,0.00,Wunderground v.1.13,2013-03-10 23:06:00,
2013-03-10 19:26:00,70.8,-99.9,30.05,ENE,76,6.0,6.0,255,0.00,,,0.00,Wunderground v.1.13,2013-03-10 23:26:00,
2013-03-10 19:36:00,70.6,-99.9,30.05,East,84,5.0,5.0,255,0.00,,,0.00,Wunderground v.1.13,2013-03-10 23:36:00,
2013-03-10 19:41:00,70.6,-99.9,30.05,NE,52,5.0,5.0,255,0.00,,,0.00,Wunderground v.1.13,2013-03-10 23:41:00,
2013-03-10 19:46:00,70.6,-99.9,30.05,ENE,64,6.0,8.0,255,0.00,,,0.00,Wunderground v.1.13,2013-03-10 23:46:00,
2013-03-10 19:51:00,70.4,-99.9,30.05,NE,45,5.0,8.0,-32768,0.00,,,0.00,Wunderground v.1.13,2013-03-10 23:51:00,
2013-03-10 19:56:00,70.4,-99.9,30.05,ENE,68,5.0,11.0,-32768,0.00,,,0.00,Wunderground v.1.13,2013-03-10 23:56:00,
2013-03-10 20:01:00,70.4,-99.9,30.06,East,90,6.0,9.0,-32768,0.00,,,0.00,Wunderground v.1.13,2013-03-11 00:01:00,
2013-03-10 20:21:00,70.3,-99.9,30.06,ENE,73,5.0,5.0,255,0.00,,,0.00,Wunderground v.1.13,2013-03-11 00:21:00,
2013-03-10 21:06:00,70.3,-99.9,30.06,NE,56,6.0,9.0,255,0.00,,,0.00,Wunderground v.1.13,2013-03-11 01:06:00,
2013-03-10 22:00:00,70.3,-99.9,30.07,ENE,68,6.0,12.0,-32768,0.00,,,0.00,Wunderground v.1.13,2013-03-11 02:00:00,
2013-03-10 22:31:00,70.3,-99.9,30.08,ENE,74,8.0,8.0,255,0.00,,,0.00,Wunderground v.1.13,2013-03-11 02:31:00,
2013-03-10 22:46:00,69.9,-99.9,30.08,ENE,65,7.0,8.0,255,0.00,,,0.00,Wunderground v.1.13,2013-03-11 02:46:00,
2013-03-10 22:50:00,69.9,-99.9,30.09,ENE,68,5.0,12.0,-32768,0.00,,,0.00,Wunderground v.1.13,2013-03-11 02:50:00,
2013-03-10 22:55:00,69.8,-99.9,30.09,ENE,68,8.0,13.0,-32768,0.00,,,0.00,Wunderground v.1.13,2013-03-11 02:55:00,
2013-03-10 23:00:00,69.8,-99.9,30.09,East,90,9.0,13.0,-32768,0.00,,,0.00,Wunderground v.1.13,2013-03-11 03:00:00,
2013-03-10 23:36:00,69.8,-99.9,30.09,ENE,77,6.0,8.0,255,0.00,,,0.00,Wunderground v.1.13,2013-03-11 03:36:00,
2013-03-10 23:56:00,69.6,-99.9,30.09,East,86,7.0,7.0,255,0.00,,,0.00,Wunderground v.1.13,2013-03-11 03:56:00,